Weather History for Valdez Airport, AK

Change the Weather History Date:

Thursday, December 13, 2012

  Actual Average Record
Temperature  
Mean Temperature 26 °F -  
Max Temperature 28 °F 27 °F 43 °F (1967)
Min Temperature 24 °F 18 °F -10 °F (1964)
Degree Days  
Heating Degree Days 39    
Moisture  
Dew Point 24 °F    
Average Humidity 91    
Maximum Humidity 100    
Minimum Humidity 80    
Precipitation  
Precipitation 0.00 in - - ()
Sea Level Pressure  
Sea Level Pressure 29.32 in    
Wind  
Wind Speed 0 mph (East)    
Max Wind Speed 6 mph    
Max Gust Speed -    
Visibility 9 miles    
Events      
Averages and records for this station are not official NWS values.
T = Trace of Precipitation, MM = Missing Value Source: NWS Daily Summary

Daily Weather History Graph

Daily Weather History Graph

Search for Another Location

Airport:

Trip Planner

Search our weather history database for the weather conditions in past years. The results will help you decide how hot, cold, wet, or windy it might be!

Date:

Astronomy

Dec. 13, 2012 Rise Set
Actual Time 9:52 AM AKST 3:26 PM AKST
Civil Twilight 8:50 AM AKST 4:28 PM AKST
Nautical Twilight 7:51 AM AKST 5:27 PM AKST
Astronomical Twilight 6:58 AM AKST 6:20 PM AKST
Moon 10:00 AM AKST (12/13) 4:31 PM AKST (12/13)
Length of Visible Light 7h 37m
Length of Day
5h 34m
New Moon, 0% of the Moon is Illuminated
Dec 13
New Moon
Dec 19
First Quarter
Dec 28
Full
Jan 4
Last Quarter
Jan 11
New

Hourly Weather History & Observations

Time (AKST) Temp. Windchill Dew Point Humidity Pressure Visibility Wind Dir Wind Speed Gust Speed Precip Events Conditions
12:16 AM 24.8 °F - 24.8 °F 100% 29.23 in 10.0 mi Calm Calm - N/A   Overcast
12:36 AM 26.6 °F - 24.8 °F 93% 29.23 in 10.0 mi Calm Calm - N/A   Unknown
12:56 AM 26.6 °F - 23.0 °F 86% 29.23 in 10.0 mi Calm Calm - N/A   Unknown
1:16 AM 26.6 °F - 26.6 °F 100% 29.23 in 10.0 mi Calm Calm - N/A   Unknown
1:36 AM 26.6 °F - 24.8 °F 93% 29.24 in 10.0 mi Calm Calm - N/A   Unknown
1:56 AM 26.6 °F - 23.0 °F 86% 29.24 in 9.0 mi Calm Calm - N/A   Unknown
2:16 AM 26.6 °F - 24.8 °F 93% 29.24 in 7.0 mi Calm Calm - N/A   Unknown
2:36 AM 26.6 °F - 26.6 °F 100% 29.25 in 10.0 mi Calm Calm - N/A   Unknown
3:16 AM 26.6 °F - 24.8 °F 93% 29.24 in 10.0 mi Calm Calm - N/A   Unknown
3:36 AM 26.6 °F - 26.6 °F 100% 29.25 in 10.0 mi Calm Calm - N/A   Unknown
3:56 AM 28.4 °F - 24.8 °F 86% 29.25 in 10.0 mi Calm Calm - N/A   Unknown
4:16 AM 28.4 °F - 24.8 °F 86% 29.25 in 10.0 mi Calm Calm - N/A   Unknown
4:36 AM 26.6 °F - 24.8 °F 93% 29.25 in 10.0 mi Calm Calm - N/A   Unknown
4:56 AM 28.4 °F - 26.6 °F 93% 29.26 in 9.0 mi Calm Calm - N/A   Unknown
5:16 AM 26.6 °F - 26.6 °F 100% 29.26 in 7.0 mi Calm Calm - N/A   Unknown
5:36 AM 26.6 °F - 24.8 °F 93% 29.27 in 8.0 mi Calm Calm - N/A   Unknown
5:56 AM 26.6 °F - 24.8 °F 93% 29.26 in 6.0 mi Calm Calm - N/A   Overcast
6:16 AM 26.6 °F - 26.6 °F 100% 29.26 in 6.0 mi Calm Calm - N/A   Overcast
6:36 AM 26.6 °F - 24.8 °F 93% 29.27 in 6.0 mi Calm Calm - N/A   Overcast
6:56 AM 28.4 °F - 26.6 °F 93% 29.27 in 6.0 mi Calm Calm - N/A   Overcast
7:16 AM 26.6 °F - 24.8 °F 93% 29.27 in 6.0 mi Calm Calm - N/A   Overcast
7:36 AM 26.6 °F - 24.8 °F 93% 29.28 in 6.0 mi Calm Calm - N/A   Overcast
7:56 AM 26.6 °F - 21.2 °F 80% 29.28 in 7.0 mi Calm Calm - N/A   Mostly Cloudy
8:16 AM 24.8 °F - 24.8 °F 100% 29.29 in 7.0 mi Calm Calm - N/A   Mostly Cloudy
8:36 AM 26.6 °F - 24.8 °F 93% 29.29 in 7.0 mi Calm Calm - N/A   Mostly Cloudy
8:56 AM 26.6 °F - 24.8 °F 93% 29.30 in 8.0 mi Calm Calm - N/A   Mostly Cloudy
9:16 AM 26.6 °F - 24.8 °F 93% 29.31 in 8.0 mi Calm Calm - N/A   Mostly Cloudy
9:36 AM 26.6 °F - 24.8 °F 93% 29.31 in 8.0 mi Calm Calm - N/A   Mostly Cloudy
9:56 AM 26.6 °F - 24.8 °F 93% 29.31 in 9.0 mi Calm Calm - N/A   Mostly Cloudy
10:16 AM 26.6 °F - 24.8 °F 93% 29.32 in 9.0 mi Calm Calm - N/A   Mostly Cloudy
10:36 AM 26.6 °F - 26.6 °F 100% 29.32 in 9.0 mi Calm Calm - N/A   Mostly Cloudy
10:56 AM 26.6 °F - 26.6 °F 100% 29.33 in 10.0 mi Calm Calm - N/A   Mostly Cloudy
11:16 AM 24.8 °F - 23.0 °F 93% 29.33 in 10.0 mi Calm Calm - N/A   Mostly Cloudy
11:36 AM 24.8 °F - 21.2 °F 86% 29.34 in 10.0 mi Calm Calm - N/A   Mostly Cloudy
11:56 AM 26.6 °F - 24.8 °F 93% 29.35 in 10.0 mi Calm Calm - N/A   Mostly Cloudy
12:16 PM 26.6 °F - 24.8 °F 93% 29.35 in 10.0 mi Calm Calm - N/A   Mostly Cloudy
12:36 PM 28.4 °F - 24.8 °F 86% 29.36 in 10.0 mi Calm Calm - N/A   Mostly Cloudy
12:56 PM 28.4 °F 24.6 °F 24.8 °F 86% 29.35 in 10.0 mi East 3.5 mph - N/A   Mostly Cloudy
1:16 PM 28.4 °F - 26.6 °F 93% 29.35 in 10.0 mi Calm Calm - N/A   Mostly Cloudy
1:36 PM 28.4 °F - 26.6 °F 93% 29.36 in 10.0 mi Calm Calm - N/A   Mostly Cloudy
2:16 PM 28.4 °F - 26.6 °F 93% 29.36 in 10.0 mi Calm Calm - N/A   Mostly Cloudy
2:36 PM 28.4 °F - 24.8 °F 86% 29.35 in 10.0 mi Calm Calm - N/A   Mostly Cloudy
2:56 PM 28.4 °F - 24.8 °F 86% 29.36 in 10.0 mi Calm Calm - N/A   Mostly Cloudy
3:16 PM 28.4 °F - 24.8 °F 86% 29.35 in 10.0 mi Calm Calm - N/A   Mostly Cloudy
3:36 PM 26.6 °F - 24.8 °F 93% 29.36 in 10.0 mi Calm Calm - N/A   Mostly Cloudy
3:56 PM 26.6 °F 21.2 °F 21.2 °F 80% 29.36 in 10.0 mi ENE 4.6 mph - N/A   Mostly Cloudy
4:16 PM 26.6 °F - 24.8 °F 93% 29.36 in 10.0 mi Calm Calm - N/A   Mostly Cloudy
4:36 PM 26.6 °F - 24.8 °F 93% 29.36 in 10.0 mi Calm Calm - N/A   Mostly Cloudy
4:56 PM 26.6 °F 22.6 °F 21.2 °F 80% 29.36 in 10.0 mi East 3.5 mph - N/A   Mostly Cloudy
5:16 PM 26.6 °F - 24.8 °F 93% 29.35 in 10.0 mi Calm Calm - N/A   Mostly Cloudy
5:36 PM 24.8 °F - 21.2 °F 86% 29.36 in 10.0 mi Calm Calm - N/A   Mostly Cloudy
5:56 PM 26.6 °F 22.6 °F 21.2 °F 80% 29.36 in 10.0 mi NE 3.5 mph - N/A   Overcast
6:16 PM 26.6 °F - 23.0 °F 86% 29.36 in 10.0 mi Calm Calm - N/A   Overcast
6:36 PM 26.6 °F 21.2 °F 24.8 °F 93% 29.37 in 10.0 mi WSW 4.6 mph - N/A   Overcast
6:56 PM 24.8 °F - 21.2 °F 86% 29.37 in 10.0 mi Calm Calm - N/A   Overcast
7:16 PM 24.8 °F - 24.8 °F 100% 29.36 in 10.0 mi Calm Calm - N/A   Overcast
7:36 PM 24.8 °F - 21.2 °F 86% 29.36 in 10.0 mi Calm Calm - N/A   Overcast
7:56 PM 24.8 °F 20.5 °F 21.2 °F 86% 29.36 in 6.0 mi ESE 3.5 mph - N/A   Overcast
8:16 PM 24.8 °F - 19.4 °F 80% 29.36 in 6.0 mi Calm Calm - N/A   Overcast
8:36 PM 24.8 °F - 21.2 °F 86% 29.36 in 6.0 mi Calm Calm - N/A   Overcast
8:56 PM 24.8 °F - 21.2 °F 86% 29.36 in 10.0 mi Calm Calm - N/A   Overcast
9:16 PM 24.8 °F - 19.4 °F 80% 29.36 in 10.0 mi Calm Calm - N/A   Overcast
9:36 PM 24.8 °F 19.1 °F 19.4 °F 80% 29.36 in 10.0 mi East 4.6 mph - N/A   Overcast
9:56 PM 24.8 °F - 23.0 °F 93% 29.36 in 10.0 mi Calm Calm - N/A   Overcast
10:16 PM 24.8 °F - 21.2 °F 86% 29.36 in 10.0 mi Calm Calm - N/A   Unknown
10:36 PM 24.8 °F 19.1 °F 21.2 °F 86% 29.36 in 10.0 mi SSW 4.6 mph - N/A   Unknown
10:56 PM 24.8 °F - 23.0 °F 93% 29.36 in 10.0 mi Calm Calm - N/A   Unknown
11:16 PM 24.8 °F 17.9 °F 23.0 °F 93% 29.35 in 10.0 mi East 5.8 mph - N/A   Unknown
11:36 PM 26.6 °F 22.6 °F 24.8 °F 93% 29.35 in 10.0 mi ENE 3.5 mph - N/A   Unknown
11:56 PM 24.8 °F - 24.8 °F 100% 29.35 in 9.0 mi Calm Calm - N/A   Unknown